Regional Weather Roundup
Issued by NWS Cleveland, OH

Home | Current Version | Previous Version | Graphics & Text | Print | Product List | Glossary On
Versions: 1 2 3 4 5 6 7 8 9 10 11 12 13 14 15 16 17 18 19 20 21 22 23 24 25 26 27 28 29 30 31 32 33 34 35 36 37 38 39 40 41 42 43 44 45 46 47 48 49 50
000
ASUS41 KCLE 241810
RWRCLE
OHIO REGIONAL WEATHER ROUNDUP
NATIONAL WEATHER SERVICE CLEVELAND, OH
100 PM EST MON NOV 24 2014

NOTE: "FAIR" INDICATES FEW OR NO CLOUDS BELOW 12,000 FEET WITH NO
SIGNIFICANT WEATHER AND/OR OBSTRUCTIONS TO VISIBILITY.

OHZ001>008-015>018-024>027-034-035-043-044-241900-
   NORTHWEST OHIO

CITY           SKY/WX    TMP DP  RH WIND       PRES   REMARKS
DEFIANCE       NOT AVBL
FINDLAY        CLOUDY    47  41  80 SW32G48   29.36R
TOLEDO EXPRESS CLOUDY    46  37  71 SW35G59   29.29R
TOLEDO EXEC    NOT AVBL
LIMA           CLOUDY    47  39  74 SW38G51   29.40R
$$

OHZ009>014-019>023-028>033-038-089-241900-
   NORTHEAST OHIO

CITY           SKY/WX    TMP DP  RH WIND       PRES   REMARKS
CLE-HOPKINS    CLOUDY    58  50  75 SW23G38   29.30R
CLE-LAKEFRONT  CLOUDY    59  50  72 SW21G40   29.27R
CUY CO. ARPT   PTSUNNY   59  52  77 SW23G35   29.29S
LORAIN-ELYRIA  LGT RAIN  59  49  69 SW32G47   29.29R
ASHTABULA      CLOUDY    64  46  52 SW23G36   29.27S
AKRON-CANTON   LGT RAIN  57  48  72 SW36G62   29.36R SQUALL
WOOSTER        LGT RAIN N/A N/A N/A SW31G47   29.35R
MANSFIELD      CLOUDY    55  51  86 SW17G33   29.33R
YOUNGSTOWN     CLOUDY    64  44  48 SW22G37   29.31F
$$

OHZ042-051>053-060>062-070>072-077>081-241900-
  SOUTHWEST OHIO

CITY           SKY/WX    TMP DP  RH WIND       PRES   REMARKS
CINC-COVINGTON CLOUDY    47  37  68 W15G35    29.59R
CINC-LUNKEN    CLOUDY    49  39  68 SW31G47   29.59R
HAMILTON       CLOUDY    48  40  73 W22G36    29.57R
DAYTON         LGT RAIN  47  40  76 SW31G47   29.51R
WRIGHT-PAT AFB CLOUDY    49  41  73 SW31G40   29.49R
DAYTON GENERAL CLOUDY    47  40  76 SW22G37   29.53R
WILMINGTON     CLOUDY    51  40  65 SW32G46   29.52R
$$

OHZ036-037-039>041-045>050-054>059-063>069-073>076-082>088-241900-
  CENTRAL AND SOUTHEAST OHIO

CITY           SKY/WX    TMP DP  RH WIND       PRES   REMARKS
COLUMBUS       PTSUNNY   58  47  66 SW26G47   29.44R
OSU AIRPORT    LGT RAIN  56  44  64 SW36G51   29.43R
BOLTON FIELD   PTSUNNY   57  46  67 SW29G46   29.45R
RICKENBACK AFB CLOUDY    59  47  64 SW44G56   29.43R
NEWARK         CLOUDY    59  49  69 W28G33    29.42R
MARION         CLOUDY    56  46  69 SW23G44   29.38R
LANCASTER      CLOUDY    61  45  55 SW32G47   29.46R
ZANESVILLE     LGT RAIN  64  43  46 SW21G37   29.42R
NEW PHILLY     CLOUDY    65  44  46 SW16G40   29.39R
$$


USA.gov is the U.S. government's official web portal to all federal, state and local government web resources and services.